AirNav  
 
 1245 users online  

6VA9 Bush Airport
Woolwine, Virginia, USA

GOING TO WOOLWINE?


FAA INFORMATION EFFECTIVE 01 FEBRUARY 2018

Location

FAA Identifier: 6VA9
Lat/Long: 36-50-33.4840N / 080-14-18.1760W
36-50.558067N / 080-14.302933W
36.8426344 / -80.2383822
(estimated)
Elevation: 1500 ft. / 457 m (estimated)
Variation: 06W (1985)
From city: 4 miles NE of WOOLWINE, VA
Time zone: UTC -5 (UTC -4 during Daylight Saving Time)
Zip code: 24185

Airport Operations

Airport use: Private use. Permission required prior to landing
Activation date: 04/1980
Control tower: no
ARTCC: WASHINGTON CENTER
FSS: LEESBURG FLIGHT SERVICE STATION
Attendance: UNATNDD
Wind indicator: yes
Segmented circle: no

Airport Communications

WX AWOS-3 at MTV (17 nm SE): 118.45 (276-957-3784)

Nearby radio navigation aids

VOR radial/distance  VOR name  Freq  Var
PSKr129/27.1PULASKI VORTAC116.8006W
ROAr199/31.1ROANOKE VOR/DME109.4004W
ODRr211/(31.4)WOODRUM VOR114.9008W

 
NDB name  Hdg/Dist  Freq  Var  ID
TECH166/23.336806WTEC - . -.-.
VINTON226/27.627708WVIT ...- .. -
SLAMMER327/35.942307WSIF ... .. ..-.
ZEPHYR044/39.732608WZEF --.. . ..-.

Airport Services

Runway Information

Runway 15/33

Dimensions: 2800 x 100 ft. / 853 x 30 m
Surface: turf
Operational restrictions: RWY 15 NOT USABLE FOR LANDING.
RUNWAY 15  RUNWAY 33
Traffic pattern: leftleft
Obstructions: hilltrees, 50 ft. from runway

Airport Ownership and Management from official FAA records

Ownership: Privately-owned
Owner: LARRY E. DONLEY
4461 WOODS GAP RD
WOOLWINE, VA 24185
Phone 276-692-6789
Manager: LARRY E. DONLEY
4461 WOODS GAP RD
WOOLWINE, VA 24185
Phone 276-930-4311

Instrument Procedures

There are no published instrument procedures at 6VA9.

Some nearby airports with instrument procedures:

KMTV - Blue Ridge Airport (17 nm SE)
KBCB - Virginia Tech/Montgomery Executive Airport (23 nm N)
KMWK - Mount Airy/Surry County Airport (28 nm SW)
KPSK - New River Valley Airport (28 nm NW)
KHLX - Twin County Airport (28 nm W)
 
Loc | Ops | Rwys | IFR | FBO | Links
Com | Nav | Svcs | Stats | Notes

AirNav Hotels Sweepstakes
 
Area around 6VA9 (Bush Airport)
 
Road maps at: MapQuest Bing Google
 
Aerial photo
No photo
 
Sectional chart

 
Airport distance calculator
Flying to Bush Airport? Find the distance to fly.

From to 6VA9

Sunrise and sunset
Times for 20-Feb-2018
 Local
(UTC-5)
 Zulu
(UTC)
Morning civil twilight06:3811:38
Sunrise07:0412:04
Sunset18:0523:05
Evening civil twilight18:3123:31

Current date and time
Zulu (UTC)  21-Feb-2018 00:33:54
Local (UTC-5)  20-Feb-2018 19:33:54
 
METAR
KMTV 
17nm SE 
210015Z AUTO 00000KT 10SM CLR 14/13 A3044 RMK AO2 T01350127
KBCB 
24nm N 
210015Z AUTO 20004KT 10SM CLR 16/13 A3043 RMK AO2 T01550125
KPSK 
26nm NW 
210015Z AUTO 20008G14KT 10SM CLR 16/13 A3042 RMK AO2 T01600127
KMWK 
27nm SW 
210015Z AUTO 00000KT 4SM BR CLR 16/14 A3044 RMK AO2 T01550135
KHLX 
28nm W 
210015Z AUTO 19008G15KT 10SM SCT009 14/13 A3042 RMK AO2 T01400127
KSIF 
31nm SE 
210015Z AUTO 00000KT 5SM BR CLR 13/13 A3041 RMK AO2 T01340132
KROA 
31nm NE 
202354Z 17009KT 10SM FEW050 18/13 A3040 RMK AO2 SLP290 T01830128 10244 20183 53022
TAF
KBCB 
24nm N 
201853Z 2019/2118 17011G21KT P6SM SCT035 FM210000 20005KT 5SM BR FEW003 BKN015 FM210500 20005KT 2SM BR OVC005 FM211500 21004KT P6SM OVC015
NOTAMs
Click for the latest NOTAMs
NOTAMs are issued by the DoD/FAA and will open in a separate window not controlled by AirNav.

 

 
 

Would you like to see your business listed on this page?

 If your business provides an interesting product or service to pilots, flight crews, aircraft, or users of the Bush Airport, you should consider listing it here.  To start the listing process, click on the button below
 
Add a business
 

Other Pages about Bush Airport

Update a link
 
Copyright © AirNav, LLC. All rights reserved. Privacy Policy  Contact